AirNav   Everest Fuels
 
 886 users online  

A13 Bold Airport
Anchorage, Alaska, USA

GOING TO ANCHORAGE?


FAA INFORMATION EFFECTIVE 21 MAY 2020

Location

FAA Identifier: A13
Lat/Long: 61-20-28.8200N 148-59-55.9700W
61-20.480333N 148-59.932833W
61.3413389,-148.9988806
(estimated)
Elevation: 900 ft. / 274 m (estimated)
Variation: 25E (1985)
From city: 30 miles ENE of ANCHORAGE, AK
Time zone: UTC -8 (UTC -9 during Standard Time)
Zip code: 99567

Airport Operations

Airport use: Open to the public
Activation date: 08/1990
Control tower: no
ARTCC: ANCHORAGE CENTER
FSS: KENAI FLIGHT SERVICE STATION [907-283-7211]
NOTAMs facility: ENA (NOTAM-D service available)
Attendance: UNATNDD
Wind indicator: yes, TREES GROWING UP AROUND WINDSOCK; WIND INDICATOR UNRELIABLE.
Segmented circle: no

Airport Communications

CTAF: 122.9
WX AWOS-3P at BCV (15 nm W): 135.55 (907-688-0826)
WX ASOS at PAQ (15 nm N): 134.75 (907-746-6675)
WX ASOS at FRN (19 nm W): 134.25

Nearby radio navigation aids

VOR radial/distance  VOR name  Freq  Var
TEDr051/29.6ANCHORAGE VOR/DME113.1518E
BGQr097/31.0BIG LAKE VORTAC112.5019E

 
NDB name  Hdg/Dist  Freq  Var  ID
CAMPBELL LAKE055/31.933816ECMQ -.-. -- --.-

Airport Services

Parking: tiedowns

Runway Information

Runway 14/32

Dimensions: 1000 x 15 ft. / 305 x 5 m
Surface: gravel, in poor condition
RY 14/32 RUTTED AND UNEVEN. TREES ENCROACHING ON BOTH SIDES OF RY.
RY 14/32 SLOPES DOWN TOWARD LAKE. RY 14 GENTLE HUMP APPROACH END.
RUNWAY 14  RUNWAY 32
Traffic pattern: leftleft
Obstructions: none27 ft. trees, 37 ft. left and right of centerline

Airport Ownership and Management from official FAA records

Ownership: Publicly-owned
Owner: STATE OF AK DNR
18620 SEWARD HWY
ANCHORAGE, AK 99516
Phone 907-688-0910
Manager: KEITH WILSON, PARK RANGER
DNR, DIV OF PARKS & OUTDOOR REC, 18620 SEWARD HWY
ANCHORAGE, AK 99516
Phone 907-688-0910

Airport Operational Statistics

Aircraft operations: 200/year *
100% transient general aviation
* for 12-month period ending 31 December 2018

Additional Remarks

AIRSTRIP LOCATED INSIDE CHUGACH STATE PARK.
HIKERS & VEHICLES INVOF AIRSTRIP.
SHARPLY RISING TERRAIN EAST; SOUTH & WEST QUADRANTS.
LANDINGS NOT ALLOWED ON LAKE.
BRUSH UP TO 30 INCHES HIGH ON NE HALF OF RWY, FULL LENGTH.

Instrument Procedures

There are no published instrument procedures at A13.

Some nearby airports with instrument procedures:

PAAQ - Warren "Bud" Woods Palmer Municipal Airport (15 nm N)
PAFR - Bryant Army Airfield Heliport (19 nm W)
PAWS - Wasilla Airport (21 nm NW)
PAED - Elmendorf Air Force Base (24 nm W)
PAMR - Merrill Field Airport (26 nm W)
 
Loc | Ops | Rwys | IFR | FBO | Links
Com | Nav | Svcs | Stats | Notes

Crowley
 
Area around A13 (Bold Airport)
 
Road maps at: MapQuest Bing Google
 
Aerial photo
WARNING: Photo may not be current or correct
Aerial photo of A13 (Bold Airport)
Photo by Brian Kellogg

Do you have a better or more recent aerial photo of Bold Airport that you would like to share? If so, please send us your photo.

 
Sectional chart

 
Airport distance calculator
Flying to Bold Airport? Find the distance to fly.

From to A13

Sunrise and sunset
Times for 24-May-2020
 Local
(UTC-8)
 Zulu
(UTC)
Morning civil twilight03:1611:16
Sunrise04:4512:45
Sunset23:0107:01
Evening civil twilight00:3008:30

Current date and time
Zulu (UTC)  24-May-2020 23:12:16
Local (UTC-8)  24-May-2020 15:12:16
 
METAR
PABV 
16nm W 
242305Z AUTO VRB03KT 10SM SCT024 BKN030 OVC035 12/09 A2962 RMK AO2
PAAQ 
16nm N 
242253Z 22007KT 10SM -RA BKN019 BKN080 OVC100 12/08 A2959 RMK AO2 RAB45 SLP022 P0000 T01170078
PAFR 
19nm W 
242258Z AUTO 20005KT 4SM -RA BR BKN007 OVC012 11/08 A2958 RMK AO2 RAE2159RAB44 CIG 007V010 SLP023 P0001 T01050084 $
PAED 
24nm W 
242256Z 19006KT 10SM -RA BKN013 OVC045 11/08 A2960 RMK AO2A DZE21DZB43E54RAB54 CIG 012 RWY16 CIG 012 RWY24 SLP019 P0000 T01090081 $
PAMR 
26nm W 
242253Z 19004KT 10SM -RA BKN010 BKN015 OVC043 11/08 A2960 RMK AO2 SLP025 P0000 T01110078
PALH 
29nm W 
242253Z 18007KT 10SM -RA OVC060 11/07 A2961 RMK AO2 SLP028 P0000 T01060072
TAF
NOTAMs
Click for the latest NOTAMs
NOTAMs are issued by the DoD/FAA and will open in a separate window not controlled by AirNav.

 

 
 

Would you like to see your business listed on this page?

 If your business provides an interesting product or service to pilots, flight crews, aircraft, or users of the Bold Airport, you should consider listing it here.  To start the listing process, click on the button below
 
Add a business
 

Other Pages about Bold Airport

Update a link
 
Copyright © AirNav, LLC. All rights reserved. Privacy Policy  Contact